Location: Tom
(33.0437°N, 96.9452°W)
Time: 13:32:03
(UTC-05:00)

ISS - Visible Passes

Search period start: 03 August 2020 00:00
Search period end: 13 August 2020 00:00
Orbit: 419 x 420 km, 51.6° (Epoch: 04 August)

Date Brightness Start Highest point End Pass type
(mag) Time Alt. Az. Time Alt. Az. Time Alt. Az.
03 Aug -2.6 21:13:33 10° NNW 21:16:37 31° NE 21:18:49 16° E visible
03 Aug -1.0 22:50:48 10° W 22:51:46 15° W 22:51:46 15° W visible
04 Aug -2.7 22:02:41 10° WNW 22:05:48 35° SW 22:06:12 33° SSW visible
05 Aug -3.6 21:14:57 10° NW 21:18:18 72° SW 21:20:42 17° SE visible
07 Aug -1.4 21:17:16 10° W 21:19:42 19° SW 21:22:07 10° S visible
